Lapse_Rate
6.8 7.0 7.3 7.4 7.4 7.4 6.8 6.1 6.5 6.3 6.3 6.4 6.6 6.7 6.6 6.6 6.5 6.5 6.7 6.9 7.0 7.0 7.1 7.0 7.1 7.2 7.4 7.3 7.2 7.2 7.3 7.2 7.1 7.0 7.1 7.1 6.9 6.9 6.7 6.6 6.3 6.1 6.1 6.3 6.3
6.6 6.7 6.9 7.3 7.3 7.3 6.9 6.6 6.3 6.5 6.3 6.5 6.4 6.7 6.6 6.6 6.6 6.6 6.7 6.8 7.0 7.1 7.2 7.3 7.2 7.2 7.5 7.3 7.2 7.1 7.2 7.1 7.0 7.0 7.1 7.0 6.8 6.9 6.7 6.6 6.4 6.5 6.7 6.5 6.4
6.6 6.8 6.8 7.1 7.1 7.1 6.9 6.5 6.6 6.7 6.5 6.5 6.4 6.7 6.7 6.7 6.7 6.6 6.7 6.8 7.0 7.1 7.2 7.3 7.5 7.4 7.4 7.3 7.1 7.1 7.1 7.1 6.9 6.7 6.8 6.9 6.8 6.8 6.8 6.7 6.7 6.6 6.9 6.8 6.6
6.5 6.6 6.6 6.8 7.1 7.0 6.8 6.6 6.3 6.7 6.6 6.1 6.4 6.6 6.6 6.9 6.8 6.8 6.8 6.8 6.9 7.1 7.2 7.0 7.3 7.4 7.3 7.1 6.9 7.1 7.0 7.0 6.8 6.8 6.8 6.9 6.8 6.9 7.0 6.6 6.7 6.8 6.7 6.5 6.3
6.8 6.6 6.6 6.8 6.9 6.8 6.8 6.5 6.9 6.6 6.7 6.2 6.4 6.8 6.7 7.0 7.1 7.0 7.0 7.0 6.9 7.1 7.1 7.2 7.2 7.3 7.4 7.1 7.1 7.1 6.9 6.8 6.9 6.9 6.9 6.8 6.8 7.0 7.1 7.0 6.8 6.8 6.5 6.2 6.2
6.8 7.0 7.0 7.1 6.7 6.7 6.5 6.2 7.0 6.7 6.8 6.4 6.2 6.6 6.8 7.0 7.1 7.3 7.2 7.2 7.1 7.1 7.1 7.1 7.2 7.4 7.3 7.1 6.9 6.9 6.9 6.7 6.8 6.8 7.0 6.9 6.9 7.1 7.1 7.1 6.9 6.6 6.6 6.5 6.5
6.0 6.3 6.9 7.3 6.4 6.1 6.5 7.1 6.8 6.9 7.0 6.5 6.2 6.4 6.8 7.2 7.2 7.4 7.4 7.3 7.2 7.1 7.0 7.0 6.9 7.1 7.0 7.0 6.9 6.9 6.9 6.9 6.9 6.8 6.8 6.9 7.2 7.1 7.0 7.1 7.0 6.7 6.4 6.3 6.4
6.4 5.6 6.2 6.6 6.5 6.7 7.0 6.9 6.8 6.9 6.8 6.4 6.4 6.7 7.1 7.0 7.0 7.4 7.5 7.5 7.4 7.3 7.1 7.0 6.8 6.9 6.9 7.0 7.0 6.9 6.8 6.8 6.9 6.8 6.8 6.7 7.4 7.0 6.9 6.9 7.0 6.6 6.5 6.6 6.7
6.6 6.1 6.3 6.8 7.0 7.1 6.9 6.8 6.6 6.8 6.8 6.7 6.7 6.7 6.9 6.7 6.9 7.0 7.0 7.2 7.4 7.2 7.1 7.1 6.9 6.8 6.8 6.8 6.8 6.8 6.7 6.7 6.6 6.9 6.8 6.5 7.1 7.0 6.6 6.7 7.1 6.6 6.5 6.5 6.6
6.9 6.9 7.2 7.2 7.1 7.1 6.9 6.7 6.8 6.8 6.8 6.6 7.1 6.8 6.6 6.5 6.6 6.7 7.0 6.9 7.0 7.1 7.1 7.0 7.0 6.8 6.9 6.9 7.0 6.8 6.6 6.4 6.3 6.7 6.7 6.7 7.2 7.3 6.7 6.7 7.0 6.7 6.5 6.3 6.6
6.9 7.0 7.0 7.1 7.2 7.0 6.8 6.7 6.9 6.8 6.9 7.0 7.2 6.9 6.5 6.5 6.5 6.5 6.6 6.8 6.9 7.0 7.0 6.9 6.9 6.8 6.8 6.8 6.7 6.4 6.3 6.3 6.0 6.4 6.6 6.5 7.0 7.1 7.2 7.2 7.0 6.6 6.5 6.7 6.7
6.8 6.9 7.0 7.0 6.9 6.7 6.7 7.2 7.1 7.0 7.2 7.2 7.2 6.7 6.7 6.7 6.8 6.6 6.6 6.7 6.8 6.8 6.8 6.8 6.8 6.7 6.6 6.5 6.4 6.5 6.7 6.4 6.0 6.2 5.9 6.8 7.1 6.9 6.8 6.8 6.9 6.8 6.6 6.6 6.7
6.6 6.6 6.7 6.9 7.0 7.2 7.2 7.2 7.2 7.4 7.2 6.9 6.7 6.5 6.6 6.5 6.6 6.5 6.5 6.6 6.6 6.7 6.7 6.7 6.7 6.6 6.4 6.7 6.3 6.4 6.2 6.1 6.0 6.5 6.3 6.3 6.6 6.5 6.3 6.4 6.7 6.9 7.0 7.1 7.0
6.5 6.5 6.6 6.7 6.9 7.3 7.2 7.3 7.4 7.5 7.3 6.9 6.8 6.5 6.6 6.6 6.6 6.6 6.6 6.6 6.6 6.6 6.6 6.7 6.8 6.7 6.5 6.2 6.1 6.3 6.1 5.9 5.9 5.8 5.8 5.9 6.1 6.6 6.5 6.5 6.6 6.8 6.9 6.9 7.2
6.7 6.7 6.6 6.7 7.0 7.1 7.0 7.0 7.1 7.1 4.6 6.6 6.7 6.5 6.6 6.7 6.5 6.5 6.6 6.5 6.6 6.8 6.6 6.5 6.4 6.3 6.0 6.2 6.1 6.1 5.9 6.0 5.8 5.7 5.7 5.7 5.8 6.4 6.4 6.4 6.7 6.9 7.0 7.0 7.0
6.8 6.8 6.9 6.9 6.9 6.8 7.0 7.1 7.1 7.0 6.0 6.4 6.4 6.4 6.5 6.4 6.5 6.5 6.5 6.5 6.4 6.4 6.3 6.2 6.1 6.0 6.1 6.1 6.0 6.0 6.2 6.1 5.5 5.4 4.7 6.1 6.1 6.5 6.2 6.2 6.5 6.8 6.7 6.7 7.0
7.0 7.1 7.1 7.2 7.1 7.0 7.1 7.1 7.0 6.7 6.2 6.2 6.3 6.4 6.4 6.4 6.4 6.4 6.4 6.4 6.4 6.3 6.2 6.3 6.2 6.2 6.2 6.2 6.3 6.3 6.3 6.1 4.4 4.0 3.7 5.8 5.5 6.6 6.3 6.4 6.2 6.3 6.4 6.6 6.8
7.2 7.2 7.2 7.2 7.2 7.1 7.2 7.2 7.1 6.3 6.3 6.2 6.3 6.3 6.5 6.5 6.4 6.4 6.3 6.2 6.1 6.2 6.3 6.3 6.3 6.2 6.3 6.2 6.1 6.1 6.2 5.8 4.6 3.6 4.3 5.4 5.9 6.4 6.4 6.1 6.2 6.2 6.3 6.5 6.5
7.0 7.2 7.2 7.4 7.3 7.2 7.1 7.0 6.9 6.5 6.4 6.3 6.2 6.3 6.2 6.3 6.3 6.3 6.4 6.5 6.3 6.4 6.3 6.1 6.0 6.1 6.0 5.9 6.0 5.8 5.9 5.8 5.7 5.2 4.7 6.2 6.5 6.5 6.5 6.7 6.5 6.2 6.1 6.2 6.0
7.1 7.0 7.1 7.2 7.2 7.2 6.9 6.8 6.6 6.4 6.2 6.2 6.0 6.0 5.9 6.2 6.1 6.1 6.0 6.0 6.0 6.0 6.0 6.0 6.0 6.0 5.9 6.0 6.0 5.9 5.7 5.5 5.4 4.7 4.7 5.9 6.5 7.0 6.8 6.9 6.7 6.3 6.0 5.9 5.8
6.9 7.1 6.9 7.0 7.1 7.1 7.0 6.8 6.6 6.4 6.2 6.3 6.3 6.0 6.0 6.1 6.0 5.8 5.8 6.0 5.9 5.9 6.0 6.1 6.1 5.9 6.0 6.1 6.0 5.7 5.4 5.5 5.6 5.4 4.2 4.3 6.3 6.8 6.7 6.6 6.2 5.9 5.6 5.5 5.7
6.8 6.7 6.7 6.8 6.8 6.9 6.9 6.8 6.7 6.4 6.3 6.3 6.3 6.2 6.2 6.2 6.1 6.0 6.0 6.0 5.9 5.9 5.9 5.9 5.6 5.7 5.6 5.5 5.4 5.4 5.4 5.4 5.6 5.3 5.3 5.1 6.2 6.6 6.2 5.8 5.5 5.4 5.4 5.7 5.7
6.7 6.6 6.3 6.4 6.5 6.5 6.5 6.5 6.4 6.3 6.3 6.3 6.3 6.2 6.1 6.0 6.0 5.9 5.8 5.8 5.8 5.8 5.7 5.6 5.4 5.6 5.4 5.3 5.2 5.2 5.5 5.2 5.1 5.0 5.0 4.7 6.3 6.3 5.7 5.4 5.8 5.6 5.4 5.5 5.2
6.6 6.4 6.0 5.9 5.9 6.0 6.1 6.1 6.0 6.0 6.0 6.1 6.1 6.0 6.0 5.9 5.8 5.8 5.8 5.7 5.7 5.6 5.6 5.4 5.5 5.6 5.8 5.8 5.5 5.5 5.6 5.5 5.1 4.9 5.3 5.6 6.3 6.2 5.8 5.4 5.2 5.2 5.0 5.0 4.9
6.4 5.9 5.9 5.7 5.5 5.4 5.6 5.8 5.8 5.8 5.8 5.7 5.7 5.7 5.7 5.7 5.7 5.7 5.7 5.6 5.5 5.5 5.4 5.2 5.3 5.3 5.5 5.6 5.3 5.4 5.7 5.7 5.2 5.7 4.8 5.8 5.4 5.7 5.3 5.2 5.1 5.0 5.0 5.1 5.1
6.2 6.0 5.8 5.4 5.4 5.4 5.3 5.3 5.6 5.6 5.7 5.6 5.7 5.6 5.6 5.5 5.6 5.4 5.4 5.2 5.3 5.3 5.1 4.9 4.9 4.8 5.4 5.5 5.3 5.4 5.9 5.6 5.3 5.1 4.8 4.7 5.8 5.6 5.3 5.4 5.1 4.6 5.0 5.0 4.8
5.6 5.7 5.9 5.7 5.2 5.1 5.0 5.1 5.1 5.1 5.2 5.4 5.5 5.5 5.4 5.2 5.2 5.0 5.1 4.9 4.7 4.9 4.7 4.4 4.4 4.2 4.6 4.8 4.9 5.5 6.2 6.2 6.3 6.2 5.9 5.5 6.5 5.5 5.7 5.7 4.8 4.6 4.8 4.7 4.7
Wind_Speed
19 13 11 8 7 7 13 20 17 15 12 10 7 7 9 6 4 1 4 4 7 14 13 7 5 5 1 1 2 2 4 2 3 3 4 1 2 3 3 1 2 3 5 6 9
22 17 11 8 7 8 17 14 14 12 10 9 5 4 2 3 2 7 5 8 8 8 4 3 2 1 3 1 3 4 4 1 3 1 3 3 4 2 2 4 3 0 6 5 6
19 18 16 10 15 17 20 15 11 10 9 7 5 3 2 5 0 1 12 9 6 5 4 3 4 1 3 2 4 3 3 4 3 3 4 2 2 6 2 3 2 3 8 6 5
18 19 24 30 20 21 20 15 12 9 9 7 6 4 7 2 5 4 14 8 6 4 5 4 4 2 3 3 2 5 4 3 2 3 3 2 5 6 4 7 4 7 9 6 6
18 21 25 28 26 17 17 14 11 9 7 4 4 6 4 5 2 8 11 9 2 3 4 4 2 2 4 4 3 4 2 5 3 3 1 2 4 5 9 11 9 3 7 8 6
18 21 20 22 25 9 13 12 10 6 3 4 6 7 1 5 6 12 6 5 5 4 5 7 3 3 5 4 4 2 5 4 1 0 1 1 4 5 7 3 3 6 6 4 6
13 12 16 18 19 8 11 7 6 4 3 4 6 1 8 3 5 14 2 2 3 2 4 3 4 6 2 4 2 2 2 0 2 1 0 2 3 7 8 3 4 6 7 7 8
15 11 17 15 11 8 8 6 3 1 4 3 4 3 4 3 8 7 5 2 5 6 5 2 5 6 4 1 2 2 3 2 2 2 2 2 8 4 4 6 7 8 8 8 9
13 14 11 7 7 8 6 3 1 6 7 7 3 5 3 0 3 6 4 2 1 3 3 1 4 4 3 3 4 4 1 3 2 2 2 0 9 4 4 3 7 8 8 7 7
13 10 6 6 7 7 5 6 8 8 6 4 1 5 5 3 3 5 4 4 3 2 4 5 5 4 5 5 3 2 2 3 2 1 2 4 17 14 11 14 11 9 9 5 6
13 11 9 4 4 1 6 3 4 5 9 5 1 5 2 5 2 6 4 6 0 6 4 3 7 2 2 2 0 1 0 3 1 2 6 4 14 18 14 8 8 7 3 7 8
14 9 5 1 3 2 2 2 1 3 5 7 6 4 1 2 3 9 8 3 3 4 3 6 3 1 3 0 0 1 3 4 5 2 4 6 17 7 6 4 4 7 7 8 6
16 12 4 3 3 4 4 1 5 4 6 4 3 3 4 5 4 7 6 3 5 6 4 6 3 2 1 5 4 2 1 1 3 7 4 7 6 2 4 5 8 7 5 5 8
16 13 6 2 3 2 2 3 5 3 5 8 4 4 3 2 4 2 3 2 6 4 4 5 2 3 2 2 1 1 2 2 4 5 3 3 4 5 0 1 2 5 5 5 5
14 15 6 3 3 3 1 4 4 3 5 4 4 2 4 3 3 6 2 5 4 3 5 3 3 2 4 2 1 2 0 1 1 2 4 3 4 6 2 1 3 5 5 5 3
14 15 5 5 3 1 3 4 3 6 2 4 2 0 1 1 1 1 2 5 2 4 5 2 1 1 1 1 1 1 4 3 2 3 3 3 5 5 2 1 3 1 4 5 3
11 11 5 3 1 4 2 3 5 6 3 3 1 2 3 1 2 1 3 3 2 4 2 2 1 1 1 1 3 7 5 3 5 4 4 1 3 7 4 3 6 5 4 4 3
10 7 6 4 2 3 2 6 7 2 2 2 1 1 2 3 2 0 2 2 4 3 3 4 6 1 0 2 2 2 5 4 4 1 5 2 5 4 2 5 5 3 6 6 6
8 2 2 4 5 2 5 5 6 1 1 2 1 1 1 1 1 2 3 2 3 5 4 2 3 1 3 3 2 1 0 3 3 3 3 3 4 5 3 3 6 6 6 4 3
2 2 3 6 4 4 5 4 3 2 4 1 1 1 2 3 1 2 3 2 2 2 2 1 1 1 0 3 2 1 0 1 2 1 4 5 4 4 2 4 3 4 4 1 4
3 3 3 4 3 5 4 2 3 2 3 3 3 2 3 2 1 1 2 2 2 1 3 2 3 3 3 4 6 1 2 2 2 4 4 2 6 5 8 7 5 5 5 3 4
2 3 3 3 4 2 2 2 1 1 1 2 2 3 3 2 2 2 2 2 4 1 2 0 3 3 5 1 1 2 3 5 4 3 2 3 6 3 8 8 3 5 4 5 4
2 1 3 4 3 2 1 2 3 1 2 4 2 4 2 2 2 3 3 2 3 3 2 1 1 3 6 4 3 2 4 4 3 3 5 4 5 1 2 4 6 3 5 5 6
3 3 4 4 1 5 2 2 2 1 1 1 2 1 1 1 2 1 1 1 2 2 2 3 1 6 6 4 3 4 5 5 5 3 3 6 4 3 4 3 1 1 3 5 6
3 1 3 3 4 4 1 0 3 1 0 0 1 2 0 2 3 2 2 2 1 3 1 3 3 3 5 8 6 8 10 9 10 11 8 4 6 6 7 4 4 1 4 6 7
3 3 3 2 2 5 5 3 1 2 4 2 3 3 3 3 2 2 1 3 4 1 3 1 3 3 5 7 6 7 12 13 15 15 15 14 24 13 13 5 2 3 5 6 7
3 3 3 3 3 3 3 3 3 3 3 2 1 1 2 3 1 2 2 2 3 6 6 5 2 2 5 6 8 8 7 11 5 6 12 13 12 3 4 4 1 5 5 5 6
Wind_Direction
104 108 109 124 152 170 155 162 145 137 143 150 160 194 221 244 272 241 45 298 307 315 322 289 297 277 20 29 333 48 61 69 356 87 151 195 98 336 177 123 337 220 142 155 153
92 88 88 112 146 146 138 128 119 121 131 137 146 260 256 196 173 64 306 326 311 316 320 2 249 218 33 11 357 67 81 117 330 69 104 111 92 299 23 6 284 21 30 119 144
87 74 74 94 138 131 117 96 110 107 109 125 112 52 24 342 296 12 343 334 321 307 251 281 256 230 57 31 7 19 119 141 22 46 32 55 35 318 82 285 217 152 182 174 153
78 73 79 79 87 103 101 116 93 100 99 114 101 6 332 311 142 301 342 335 317 300 313 324 43 60 93 82 29 88 35 62 79 37 34 50 307 327 216 224 140 169 161 162 178
81 85 89 84 77 90 105 103 112 99 87 74 58 6 350 62 29 302 333 342 326 360 43 15 60 47 99 103 38 81 95 52 94 86 303 26 275 240 258 252 263 210 192 187 199
85 94 84 88 90 57 91 87 97 91 42 2 5 345 154 78 258 307 352 360 22 50 30 36 20 36 91 71 77 15 97 131 101 281 337 325 273 25 263 220 132 188 210 217 214
72 74 89 89 90 103 82 85 85 72 326 352 26 35 58 153 296 322 305 35 11 104 92 36 320 74 7 85 302 91 75 285 211 192 293 318 282 216 239 176 190 215 230 223 217
57 59 69 69 86 78 74 62 78 19 264 300 355 77 85 280 320 10 359 46 40 56 95 59 40 91 61 102 52 101 66 22 223 350 283 1 274 267 259 189 211 241 247 221 215
49 55 67 69 67 63 50 55 127 224 267 312 35 100 54 293 19 318 22 2 330 64 58 53 67 102 46 69 22 354 195 197 300 96 322 65 277 267 230 241 249 253 256 236 223
32 38 46 57 49 46 41 360 320 282 278 261 314 54 14 357 322 313 321 333 58 49 35 47 52 61 30 62 194 258 26 332 335 26 287 262 269 277 257 263 262 249 245 236 143
18 16 16 28 66 64 2 6 23 3 35 102 34 76 18 322 325 356 337 329 107 42 80 26 70 101 154 54 168 180 359 296 290 18 357 228 275 292 291 248 249 233 151 111 112
9 3 334 215 218 351 76 59 203 190 64 39 78 64 213 10 20 347 359 48 50 89 66 30 91 232 299 321 283 355 9 325 287 34 346 316 295 296 351 358 181 150 130 123 127
2 358 319 238 349 44 81 119 295 337 86 10 39 51 308 14 50 333 7 0 70 51 27 117 167 226 301 40 23 53 138 27 243 331 254 312 316 359 4 32 59 66 116 135 169
10 7 36 151 50 163 52 306 332 14 80 330 357 4 344 45 32 312 348 34 36 114 82 79 309 2 354 138 262 179 46 24 357 32 272 48 279 319 280 108 112 84 70 108 121
359 5 351 135 162 61 268 322 327 58 67 304 345 303 303 74 153 348 314 36 89 102 83 231 168 200 225 162 40 145 342 54 74 7 35 318 72 269 224 327 67 116 116 119 110
354 9 12 20 53 327 308 338 46 43 272 359 287 225 96 56 73 199 28 44 71 77 49 134 220 102 186 151 130 321 53 38 49 74 24 248 114 292 279 228 131 75 98 94 67
345 9 43 42 165 315 353 59 35 87 254 313 47 328 89 19 64 64 102 46 107 74 348 60 128 165 61 30 9 63 52 347 359 10 215 252 42 240 283 64 141 151 110 63 29
335 345 72 70 348 355 71 51 71 217 159 255 263 296 88 7 15 123 137 93 33 84 103 120 329 193 138 73 170 48 130 144 228 244 265 200 238 258 226 125 133 137 71 54 28
335 349 32 336 3 60 74 53 179 174 323 169 285 179 32 2 62 13 63 87 49 38 134 149 281 31 44 34 86 23 75 144 117 309 38 236 267 314 60 81 71 79 71 45 19
57 37 317 341 7 63 72 143 139 333 348 312 282 136 155 173 97 161 157 319 124 57 75 193 38 179 127 51 358 154 300 77 1 160 277 290 268 224 188 140 135 94 100 34 7
65 48 269 358 58 50 107 152 117 358 38 48 23 50 75 128 111 141 118 331 75 191 2 54 103 301 74 196 179 114 264 222 152 155 187 300 273 219 181 189 133 134 130 91 14
76 46 285 41 45 46 75 33 264 141 305 348 23 50 62 56 49 81 92 75 20 74 57 313 145 226 241 127 93 190 219 162 125 238 227 154 275 232 170 199 99 149 104 37 5
67 262 336 77 81 31 227 77 72 63 52 26 75 29 6 59 92 57 80 307 61 46 131 96 320 3 336 350 345 223 233 204 112 79 223 146 265 155 111 41 332 137 50 4 357
84 25 334 38 100 121 114 122 88 359 88 55 125 23 22 114 57 111 146 138 61 62 112 67 216 182 199 210 158 233 227 214 153 144 211 224 250 188 135 165 131 49 1 357 342
39 172 193 347 346 3 93 350 135 169 296 57 218 209 123 154 171 196 155 159 183 173 124 123 233 238 256 254 226 231 233 216 202 205 192 220 222 233 219 250 203 133 354 354 337
80 82 9 259 308 357 4 356 73 166 153 197 162 176 182 180 141 163 152 199 215 164 169 166 271 332 285 267 252 262 243 229 234 237 247 257 272 267 278 167 130 342 354 337 338
335 353 101 276 353 61 326 339 6 359 352 143 184 75 235 237 194 221 203 195 176 165 194 159 174 37 266 329 325 291 245 209 196 209 217 224 244 236 157 160 127 332 354 331 323